INTELSAT 9 (IS-9) (26451 NORAD) Tracking and Keplerian Element Data

This shows tracking and keplerian element data for the satellite.

Feedback or suggestion? Click here.




ElementValue
Catalog26451
NameINTELSAT 9 (IS-9)
Epoch Orbit3914
Epoch Day34.62529366
Epoch Year2025
RAAN53.6838
Inclination9.2902
Eccentricity0.0002911
Argument of Perigee265.0069
Mean Anonmoly106.6928
Mean Motion1.00272228
Decay Rate-1.2E-07
L11 26451U 00043A 25034.62529366 -.00000012 00000+0 00000+0 0 9990
L22 26451 9.2902 53.6838 0002911 265.0069 106.6928 1.00272228 39149



Live tracking and technical data element details for INTELSAT 9 (IS-9) (NORAD 26451). INTELSAT 9 (IS-9) can be tracked NOW for your location showing map with azimuth and elevation plus other details from your city location.







IsCatalogInMostPopularTable: catalog: 26451, numindb: 434
Update: records affected: 1



GetName: 26451 INTELSAT 9 (IS-9)

Hit Count: updated at: Thu, 22 May 2025 04:30:00 GMT